User: anonymous   Login
Location: Unspecified
(0.0000°N, 0.0000°E)
Time: 22:41:50
(UTC+02:00)
Language:

Milstar 3 - Orbit

View from above orbital plane
View from above orbital plane
View from above satellite
View from above satellite

Ground track
Ground track

The orbit data is extracted from the following two-line orbital elements,

1 25724U 99023A   16075.02987657 0.00000000  00000-0  00000-0 0    09
2 25724  28.2236 304.9099 2136299 327.4305  32.5691  9.37457873    04
Epoch (UTC): 15 March 2016 00:43:01
Eccentricity: 0.2136299
inclination: 28.2236°
perigee height: 1093 km
apogee height: 5152 km
right ascension of ascending node: 304.9099°
argument of perigee: 327.4305°
revolutions per day: 9.37457873
mean anomaly at epoch: 32.5691°
orbit number at epoch: 0

The dashed part of the orbit path shows where the satellite is in the earth's shadow,  

DLR